When you browse on this site, cookies collect data to enhance your experience and personalize the content and advertising you see.
Visit our Privacy Policy to learn more. By continuing to use the site, you agree to this use of cookies and data.
  • In Hungary
  • List of Countries
  • For 7 days
  • Water Temperature
  • Weather Map
  • News
  • Weather Widgets
  • user-avatar
    Login

    Hourly Weather Namitete

    Today, 12 December, Thursday

    Time Temperature Precipitation Wind Pressure Humidity
    00:00 +22°C° 1.1 mm 1 mps 663 mmHg 91%
    01:00 +22°C° 1.1 mm 1 mps 663 mmHg 91%
    02:00 +22°C° 0 mm 1 mps 663 mmHg 91%
    03:00 +22°C° 0.5 mm 1 mps 663 mmHg 91%
    04:00 +19°C° 0.5 mm 0 mps 663 mmHg 91%
    05:00 +19°C° 0.5 mm 0 mps 663 mmHg 92%
    06:00 +21°C° 0.5 mm 0 mps 663 mmHg 87%
    07:00 +24°C° 0.5 mm 1 mps 664 mmHg 82%
    08:00 +24°C° 0 mm 0 mps 665 mmHg 78%
    09:00 +26°C° 1.6 mm 1 mps 665 mmHg 76%
    10:00 +27°C° 1.6 mm 1 mps 664 mmHg 73%
    11:00 +28°C° 1.6 mm 1 mps 664 mmHg 70%
    12:00 +28°C° 0.3 mm 1 mps 663 mmHg 69%
    13:00 +28°C° 0.3 mm 1 mps 663 mmHg 67%
    14:00 +28°C° 0.3 mm 1 mps 662 mmHg 65%
    15:00 +28°C° 0.5 mm 1 mps 662 mmHg 70%
    16:00 +27°C° 0.5 mm 1 mps 662 mmHg 74%
    17:00 +26°C° 0.5 mm 1 mps 662 mmHg 79%
    18:00 +25°C° 0.4 mm 1 mps 662 mmHg 81%
    19:00 +22°C° 0.4 mm 0 mps 662 mmHg 82%
    20:00 +22°C° 0.4 mm 0 mps 663 mmHg 84%
    21:00 +23°C° 1.6 mm 1 mps 663 mmHg 85%
    22:00 +23°C° 1.6 mm 1 mps 663 mmHg 86%
    23:00 +23°C° 1.6 mm 1 mps 663 mmHg 87%

    Tomorrow, 13 December, Friday

    Time Temperature Precipitation Wind Pressure Humidity
    00:00 +23°C° 0.3 mm 1 mps 663 mmHg 87%
    01:00 +21°C° 0.3 mm 0 mps 663 mmHg 87%
    02:00 +21°C° 0.3 mm 0 mps 663 mmHg 87%
    03:00 +22°C° 1 mm 1 mps 663 mmHg 88%
    04:00 +22°C° 1 mm 1 mps 663 mmHg 89%
    05:00 +22°C° 1 mm 1 mps 663 mmHg 90%
    06:00 +23°C° 1.2 mm 1 mps 664 mmHg 88%
    07:00 +23°C° 1.2 mm 2 mps 665 mmHg 85%
    08:00 +24°C° 1.2 mm 2 mps 666 mmHg 83%
    09:00 +25°C° 2 mm 2 mps 666 mmHg 80%
    10:00 +26°C° 2 mm 2 mps 665 mmHg 76%
    11:00 +27°C° 2 mm 1 mps 665 mmHg 73%
    12:00 +26°C° 1.8 mm 2 mps 665 mmHg 76%
    13:00 +25°C° 1.8 mm 2 mps 664 mmHg 79%
    14:00 +25°C° 1.8 mm 2 mps 663 mmHg 82%
    15:00 +24°C° 1.6 mm 2 mps 663 mmHg 84%
    16:00 +24°C° 1.6 mm 2 mps 663 mmHg 86%
    17:00 +23°C° 1.6 mm 2 mps 663 mmHg 88%
    18:00 +23°C° 0.6 mm 2 mps 664 mmHg 89%
    19:00 +21°C° 0.6 mm 2 mps 664 mmHg 90%
    20:00 +21°C° 0.6 mm 2 mps 665 mmHg 91%
    21:00 +21°C° 0 mm 2 mps 665 mmHg 92%
    22:00 +21°C° 0 mm 1 mps 665 mmHg 93%
    23:00 +21°C° 0 mm 1 mps 665 mmHg 94%

    Day after tomorrow, 14 December, Saturday

    Time Temperature Precipitation Wind Pressure Humidity
    00:00 +21°C° 0 mm 1 mps 664 mmHg 94%
    01:00 +21°C° 0 mm 1 mps 664 mmHg 94%
    02:00 +20°C° 0 mm 1 mps 664 mmHg 94%
    03:00 +20°C° 0.3 mm 1 mps 664 mmHg 95%
    04:00 +20°C° 0.3 mm 1 mps 664 mmHg 95%
    05:00 +20°C° 0.3 mm 1 mps 664 mmHg 96%
    06:00 +21°C° 0.2 mm 1 mps 665 mmHg 92%
    07:00 +21°C° 0.2 mm 2 mps 666 mmHg 88%
    08:00 +24°C° 0.2 mm 2 mps 666 mmHg 85%
    09:00 +25°C° 1.1 mm 2 mps 666 mmHg 80%
    10:00 +26°C° 1.1 mm 2 mps 666 mmHg 76%
    11:00 +27°C° 1.1 mm 2 mps 666 mmHg 71%
    12:00 +27°C° 1.5 mm 2 mps 665 mmHg 72%
    13:00 +27°C° 1.5 mm 2 mps 665 mmHg 73%
    14:00 +27°C° 1.5 mm 2 mps 664 mmHg 73%
    15:00 +26°C° 0.8 mm 2 mps 664 mmHg 77%
    16:00 +25°C° 0.8 mm 2 mps 664 mmHg 80%
    17:00 +25°C° 0.8 mm 2 mps 663 mmHg 83%
    18:00 +24°C° 0.3 mm 2 mps 664 mmHg 87%
    19:00 +23°C° 0.3 mm 1 mps 664 mmHg 90%
    20:00 +22°C° 0.3 mm 1 mps 664 mmHg 93%
    21:00 +22°C° 0 mm 1 mps 664 mmHg 93%
    22:00 +21°C° 0 mm 1 mps 664 mmHg 94%
    23:00 +21°C° 0 mm 1 mps 664 mmHg 94%

    15 December, Sunday

    Time Temperature Precipitation Wind Pressure Humidity
    00:00 +21°C° 0 mm 1 mps 664 mmHg 94%
    01:00 +21°C° 0 mm 1 mps 664 mmHg 94%
    02:00 +21°C° 0 mm 1 mps 663 mmHg 94%
    03:00 +21°C° 0 mm 1 mps 664 mmHg 94%
    04:00 +20°C° 0 mm 2 mps 664 mmHg 93%
    05:00 +20°C° 0 mm 2 mps 664 mmHg 93%
    06:00 +20°C° 0 mm 2 mps 664 mmHg 90%
    07:00 +21°C° 0 mm 2 mps 665 mmHg 87%
    08:00 +23°C° 0 mm 2 mps 665 mmHg 84%
    09:00 +24°C° 0.3 mm 2 mps 665 mmHg 77%
    10:00 +26°C° 0.3 mm 1 mps 666 mmHg 71%
    11:00 +28°C° 0.3 mm 1 mps 666 mmHg 65%
    12:00 +27°C° 0.5 mm 1 mps 665 mmHg 67%
    13:00 +27°C° 0.5 mm 1 mps 664 mmHg 69%
    14:00 +27°C° 0.5 mm 1 mps 663 mmHg 70%
    15:00 +26°C° 0.3 mm 1 mps 663 mmHg 73%
    16:00 +25°C° 0.3 mm 1 mps 663 mmHg 76%
    17:00 +24°C° 0.3 mm 2 mps 662 mmHg 79%
    18:00 +23°C° 0.1 mm 1 mps 663 mmHg 80%
    19:00 +23°C° 0.1 mm 1 mps 663 mmHg 81%
    20:00 +22°C° 0.1 mm 1 mps 663 mmHg 83%
    21:00 +22°C° 0 mm 1 mps 663 mmHg 83%
    22:00 +22°C° 0 mm 1 mps 663 mmHg 83%
    23:00 +21°C° 0 mm 1 mps 664 mmHg 83%

    16 December, Monday

    Time Temperature Precipitation Wind Pressure Humidity
    00:00 +21°C° 0.1 mm 1 mps 663 mmHg 84%
    01:00 +21°C° 0.1 mm 1 mps 663 mmHg 84%
    02:00 +21°C° 0.1 mm 1 mps 662 mmHg 85%
    03:00 +21°C° 0.1 mm 1 mps 663 mmHg 85%
    04:00 +21°C° 0.1 mm 1 mps 663 mmHg 85%
    05:00 +21°C° 0.1 mm 1 mps 663 mmHg 85%
    06:00 +22°C° 0.2 mm 1 mps 664 mmHg 82%
    07:00 +23°C° 0.2 mm 1 mps 664 mmHg 79%
    08:00 +25°C° 0.2 mm 1 mps 665 mmHg 75%
    09:00 +26°C° 0.7 mm 2 mps 665 mmHg 70%
    10:00 +27°C° 0.7 mm 2 mps 665 mmHg 65%
    11:00 +28°C° 0.7 mm 2 mps 665 mmHg 60%
    12:00 +29°C° 0.8 mm 2 mps 665 mmHg 57%
    13:00 +29°C° 0.8 mm 3 mps 664 mmHg 55%
    14:00 +29°C° 0.8 mm 3 mps 664 mmHg 52%
    15:00 +28°C° 0.3 mm 2 mps 664 mmHg 58%
    16:00 +27°C° 0.3 mm 2 mps 663 mmHg 64%
    17:00 +26°C° 0.3 mm 2 mps 663 mmHg 70%
    18:00 +25°C° 0.2 mm 2 mps 663 mmHg 74%
    19:00 +23°C° 0.2 mm 2 mps 663 mmHg 78%
    20:00 +21°C° 0.2 mm 2 mps 663 mmHg 82%
    21:00 +21°C° 0 mm 2 mps 663 mmHg 83%
    22:00 +20°C° 0 mm 2 mps 664 mmHg 84%
    23:00 +20°C° 0 mm 2 mps 664 mmHg 85%

    17 December, Tuesday

    Time Temperature Precipitation Wind Pressure Humidity
    00:00 +20°C° 0 mm 2 mps 664 mmHg 88%
    01:00 +19°C° 0 mm 2 mps 663 mmHg 90%
    02:00 +19°C° 0 mm 1 mps 663 mmHg 93%
    03:00 +19°C° 0 mm 1 mps 663 mmHg 94%
    04:00 +19°C° 0 mm 1 mps 663 mmHg 95%
    05:00 +19°C° 0 mm 1 mps 663 mmHg 96%
    06:00 +19°C° 0 mm 2 mps 664 mmHg 90%
    07:00 +20°C° 0 mm 2 mps 665 mmHg 84%
    08:00 +23°C° 0 mm 2 mps 665 mmHg 78%
    09:00 +24°C° 0 mm 2 mps 665 mmHg 71%
    10:00 +26°C° 0 mm 2 mps 665 mmHg 64%
    11:00 +27°C° 0 mm 3 mps 665 mmHg 57%
    12:00 +27°C° 0 mm 3 mps 665 mmHg 56%
    13:00 +28°C° 0 mm 3 mps 664 mmHg 55%
    14:00 +28°C° 0 mm 3 mps 663 mmHg 54%
    15:00 +28°C° 0.1 mm 2 mps 663 mmHg 58%
    16:00 +27°C° 0.1 mm 2 mps 663 mmHg 61%
    17:00 +27°C° 0.1 mm 2 mps 663 mmHg 64%
    18:00 +25°C° 0.1 mm 2 mps 663 mmHg 72%
    19:00 +23°C° 0.1 mm 2 mps 663 mmHg 79%
    20:00 +20°C° 0.1 mm 2 mps 663 mmHg 86%
    21:00 +20°C° 0 mm 2 mps 663 mmHg 88%
    22:00 +20°C° 0 mm 2 mps 663 mmHg 90%
    23:00 +19°C° 0 mm 2 mps 663 mmHg 92%
    Show more